• Join FlightAware (Why Join?)
  • Login
  • US Flag 
06:33AM EDT


 

Airport Tracker/Info


-or-


 

Live Flight TrackerFlight Track Log ✈ SWA3313 ✈ 28-Apr-2013 ✈ KMHT - KBWI

Flight Track Log - Related Links

Times and Time Zones

All times are in EDT time to prevent confusion due to time zone crossing. See the SWA3313 flight status page for this flight to view local times or setup timezone preferences in your user account.

Time Position Orientation Groundspeed Altitude Reporting Facility
EDT Latitude Longitude Course Direction KTS MPH feet Rate Location/Type
05:38PM 42.9167 -71.4333 200° South 149 171 1,200  Level KA90
05:38PM 42.8833 -71.4500 200° South 201 231 2,900 2,580 Climbing KA90
05:39PM 42.8167 -71.4833 200° South 230 265 5,900 2,760 Climbing KA90
05:40PM 42.7942 -71.4497 132° Southeast 262 302 7,600 2,700 Climbing Boston Center
05:41PM 42.8456 -71.3781 46° Northeast 187 215 10,500 2,160 Climbing Boston Center
05:42PM 42.9033 -71.3064 42° Northeast 252 290 12,000 2,460 Climbing Boston Center
05:43PM 42.9836 -71.2111 41° Northeast 303 349 15,500 3,180 Climbing Boston Center
05:44PM 43.0472 -71.1275 44° Northeast 342 394 18,400 2,700 Climbing Boston Center
05:45PM 43.0706 -70.9878 77° East 361 415 21,000 2,400 Climbing Boston Center
05:46PM 42.9756 -70.9047 147° Southeast 283 326 23,200 2,280 Climbing Boston Center
05:47PM 42.8533 -70.9447 193° South 307 353 25,600 2,280 Climbing Boston Center
05:48PM 42.7394 -71.0011 200° South 377 434 27,800 2,100 Climbing Boston Center
05:49PM 42.6172 -71.0606 200° South 420 483 29,800 1,980 Climbing Boston Center
05:50PM 42.5331 -71.1722 224° Southwest 433 498 31,800 2,100 Climbing Boston Center
05:51PM 42.4717 -71.2972 236° Southwest 410 472 34,000 1,080 Climbing Boston Center
05:52PM 42.4106 -71.4222 237° Southwest 410 472 34,000  Level Boston Center
05:53PM 42.3469 -71.5467 235° Southwest 405 466 34,000  Level Boston Center
05:54PM 42.2811 -71.6683 234° Southwest 405 466 34,000  Level Boston Center
05:55PM 42.2172 -71.7897 235° Southwest 405 466 34,000  Level Boston Center
05:56PM 42.1533 -71.9164 236° Southwest 405 466 34,000  Level Boston Center
05:57PM 42.0914 -72.0400 236° Southwest 405 466 34,000  Level Boston Center
05:58PM 42.0269 -72.1661 236° Southwest 405 466 34,000  Level Boston Center
05:59PM 41.9625 -72.2892 235° Southwest 405 466 34,000  Level Boston Center
06:00PM 41.8856 -72.4372 235° Southwest 405 466 34,000  Level Boston Center
06:01PM 41.8231 -72.5600 236° Southwest 405 466 34,000  Level Boston Center
06:02PM 41.7583 -72.6850 235° Southwest 405 466 34,000  Level Boston Center
06:03PM 41.6933 -72.8069 235° Southwest 405 466 34,000  Level Boston Center
06:04PM 41.6283 -72.9289 235° Southwest 405 466 34,000 -360 Level Boston Center
06:05PM 41.5567 -73.0642 235° Southwest 405 466 33,300 -840 Descending Boston Center
06:06PM 41.5019 -73.1719 236° Southwest 405 466 32,400 -660 Descending Boston Center
06:07PM 41.4364 -73.2956 235° Southwest 405 466 32,000 -840 Descending Boston Center
06:09PM 41.3344 -73.4900 235° Southwest 395 455 30,400 -840 Descending New York Center
06:10PM 41.2650 -73.6114 233° Southwest 406 467 30,000 -240 Descending New York Center
06:11PM 41.1953 -73.7297 232° Southwest 416 479 30,000  Level New York Center
06:12PM 41.1236 -73.8506 232° Southwest 416 479 30,000  Level New York Center
06:13PM 41.0536 -73.9683 232° Southwest 421 484 30,000  Level New York Center
06:14PM 40.9836 -74.0914 233° Southwest 421 484 30,000 -60 Level New York Center
06:15PM 40.9075 -74.2031 228° Southwest 421 484 29,900 -540 Descending New York Center
06:16PM 40.8375 -74.3203 232° Southwest 421 484 29,000 -480 Descending New York Center
06:17PM 40.7694 -74.4344 232° Southwest 415 478 29,000 -300 Level New York Center
06:18PM 40.7014 -74.5458 231° Southwest 410 472 28,500 -540 Descending New York Center
06:19PM 40.6331 -74.6597 232° Southwest 410 472 28,000 -300 Descending New York Center
06:20PM 40.5647 -74.7678 230° Southwest 400 460 28,000  Level New York Center
06:21PM 40.4925 -74.8728 228° Southwest 392 451 28,000 -720 Level New York Center
06:22PM 40.4200 -74.9719 226° Southwest 387 445 26,600 -1,740 Descending New York Center
06:23PM 40.3497 -75.0711 227° Southwest 387 445 24,600 -2,100 Descending New York Center
06:24PM 40.2794 -75.1731 228° Southwest 381 438 22,500 -2,160 Descending New York Center
06:25PM 40.2133 -75.2667 227° Southwest 374 430 20,400 -1,980 Descending New York Center
06:26PM 40.1519 -75.3494 226° Southwest 361 415 18,500 -1,260 Descending New York Center
06:27PM 40.0792 -75.4478 226° Southwest 351 404 18,000 -300 Descending New York Center
06:28PM 40.0239 -75.5256 227° Southwest 340 391 18,000  Level New York Center
06:29PM 39.9556 -75.6183 226° Southwest 329 379 18,000  Level New York Center
06:30PM 39.9067 -75.6933 230° Southwest 317 365 18,000 -120 Level New York Center
06:31PM 39.8769 -75.7994 250° West 293 337 17,800 -720 Descending New York Center
06:32PM 39.8664 -75.9017 262° West 293 337 16,600 -1,440 Descending New York Center
06:34PM 39.8000 -76.0500 240° Southwest 290 334 14,000 -1,500 Descending Potomac TRACON
06:35PM 39.7500 -76.1167 226° Southwest 289 333 12,600 -1,020 Descending Potomac TRACON
06:36PM 39.6833 -76.1833 218° Southwest 277 319 12,000 -840 Descending Potomac TRACON
06:37PM 39.6333 -76.2500 226° Southwest 271 312 11,000 -1,200 Descending Potomac TRACON
06:37PM 39.6000 -76.3333 243° Southwest 261 300 9,800 -1,380 Descending Potomac TRACON
06:38PM 39.5667 -76.4167 243° Southwest 253 291 8,400 -1,440 Descending Potomac TRACON
06:39PM 39.5333 -76.4833 237° Southwest 255 293 6,900 -1,560 Descending Potomac TRACON
06:41PM 39.5000 -76.5833 247° West 264 304 5,100 -1,440 Descending Potomac TRACON
06:42PM 39.4667 -76.6667 243° Southwest 258 297 4,000 -600 Descending Potomac TRACON
06:43PM 39.4333 -76.7500 243° Southwest 254 292 4,000 -120 Level Potomac TRACON
06:43PM 39.3833 -76.7833 207° Southwest 241 277 3,800 -540 Descending Potomac TRACON
06:45PM 39.3167 -76.8333 210° Southwest 237 273 3,000 -420 Descending Potomac TRACON
06:46PM 39.2667 -76.8500 194° South 190 219 3,000  Level Potomac TRACON
06:46PM 39.2167 -76.8833 207° Southwest 172 198 3,000 -180 Level Potomac TRACON
06:47PM 39.2000 -76.8333 113° Southeast 155 178 2,700 -720 Descending Potomac TRACON
06:49PM 39.1833 -76.7833 113° Southeast 137 158 1,600 -900 Descending Potomac TRACON
06:49PM 39.1833 -76.7333 90° East 134 154 900 -780 Descending Potomac TRACON
06:51PM 39.1667 -76.6667 270° West  Level FlightAware Approximate
06:58PM 39.1754 -76.6683 270° West  Level Estimated
06:59PM 39.1754 -76.6683 270° West  Level Estimated
07:00PM 39.1754 -76.6683 270° West  Level Estimated
07:01PM 39.1754 -76.6683 270° West  Level Estimated